Vertical_Velocity
-1 -2 -3 -1 -1 -2 -5 -3 -2 -2 -3 -2 -2 -3 -3 -3 -3 -3 -1 -0 0 0 1 1 0 -0 -2 -2 -3 -3 -4 -3 -3 -2 -2 -2 -1 -1 -1 -1 -0 -0 0 1 1 0 0 -0 -0 -1 -1 -1 -1 -1 -2 -2 -2 -2 -2 -1 -1 -1 -1 -1 -1 -2 -2 -2 -1 -1 -1 -2 -2 -3 -3 -3 -3 -3 -3 -3 -3 -2 -2 -3 -3 -3
-2 -2 -3 -2 -1 -1 -4 -4 -2 -1 -2 -2 -3 -3 -3 -2 -2 -1 0 1 2 2 2 1 1 0 -1 -3 -3 -3 -3 -3 -3 -3 -2 -2 -2 -2 -2 -1 -1 -0 0 0 0 0 0 0 -0 -0 -0 -1 -1 -1 -1 -1 -1 -1 -1 -1 -1 -1 -1 -1 -1 -2 -2 -2 -2 -2 -2 -2 -2 -2 -3 -3 -3 -3 -3 -3 -3 -3 -3 -3 -2 -3
-3 -3 -4 -3 -1 -0 -2 -3 -2 -1 1 -1 -2 -1 1 1 2 3 3 2 2 2 3 2 0 -1 -2 -3 -3 -3 -3 -3 -3 -3 -2 -2 -2 -2 -2 -1 -1 -0 0 0 0 0 0 0 -0 -0 -0 -0 -0 -0 -0 -0 -0 -0 -0 -1 -1 -1 -1 -1 -1 -2 -2 -2 -2 -2 -2 -2 -2 -2 -2 -2 -3 -3 -3 -3 -3 -3 -2 -2 -2 -2
-2 -3 -4 -2 -1 0 1 -0 -1 -1 1 -0 -0 1 4 4 4 4 4 3 2 1 1 0 -1 -2 -3 -3 -3 -3 -3 -3 -3 -2 -2 -2 -2 -1 -1 -0 0 0 0 -0 -0 -0 -0 -0 0 0 0 0 0 -0 -0 -0 -0 -0 -0 -1 -1 -1 -1 -1 -1 -1 -1 -2 -2 -2 -2 -2 -2 -2 -2 -2 -2 -2 -2 -2 -2 -2 -2 -2 -1 -1
-4 -3 -3 -0 0 -0 -0 1 1 0 0 1 2 3 4 5 4 3 2 2 1 -0 -2 -2 -3 -3 -4 -4 -4 -3 -3 -2 -2 -2 -1 -1 -1 -0 -0 0 0 -0 -1 -1 -1 -1 -1 -0 0 1 1 0 0 -0 -0 -0 -0 -0 -0 -1 -1 -1 -1 -1 -1 -1 -1 -1 -1 -2 -2 -2 -2 -2 -2 -2 -2 -2 -2 -2 -2 -2 -2 -1 -1 -1
-4 -2 -0 2 1 0 -0 0 1 1 1 2 4 4 4 4 3 2 1 0 -1 -1 -3 -3 -4 -4 -3 -3 -3 -3 -2 -2 -1 -0 0 0 0 0 -0 -0 -1 -1 -1 -2 -2 -1 -1 -0 0 1 1 0 0 -0 -0 -0 -1 -1 -1 -1 -1 -1 -2 -2 -2 -2 -2 -2 -2 -2 -2 -2 -2 -2 -2 -2 -2 -2 -2 -2 -2 -2 -2 -1 -1 -1
-1 1 3 3 2 1 2 1 1 2 3 3 3 3 3 2 2 1 0 -0 -1 -2 -3 -3 -3 -2 -2 -2 -2 -2 -1 -0 1 1 1 0 -0 -1 -1 -1 -2 -2 -2 -2 -2 -1 -1 -1 -0 0 0 0 0 -0 -0 -1 -1 -1 -1 -2 -2 -2 -2 -2 -2 -2 -2 -3 -3 -3 -3 -3 -3 -3 -3 -3 -3 -3 -3 -2 -2 -2 -2 -2 -2 -2
0 0 3 3 2 1 1 1 1 2 4 3 3 2 -0 -0 -0 -0 -1 -1 -1 -1 -1 -2 -1 -1 -1 -2 -2 -1 -0 2 2 2 1 -0 -1 -2 -2 -2 -2 -2 -3 -2 -2 -2 -1 -1 -1 -1 -1 -1 -1 -1 -1 -1 -1 -1 -2 -2 -2 -2 -2 -3 -3 -3 -3 -3 -3 -4 -4 -4 -4 -4 -3 -3 -3 -3 -3 -3 -3 -3 -3 -3 -3 -3
1 -1 -1 1 2 1 -1 -2 -1 1 3 3 3 2 -1 -2 -2 -2 -2 -2 -1 0 2 2 1 -0 -1 -1 -1 -0 1 4 4 3 1 -1 -2 -2 -2 -2 -2 -2 -3 -3 -2 -2 -2 -1 -1 -1 -1 -1 -1 -1 -1 -1 -1 -1 -1 -1 -2 -2 -2 -2 -2 -3 -3 -3 -3 -4 -4 -4 -4 -4 -3 -3 -3 -3 -3 -3 -3 -3 -3 -3 -4 -4
0 -0 -2 -2 0 2 1 -2 -3 -1 2 2 2 2 1 -0 -2 -3 -3 -3 -2 0 3 5 4 2 -1 -1 -0 1 3 4 4 3 1 -1 -1 -0 -0 0 -1 -2 -2 -2 -2 -2 -2 -2 -2 -2 -2 -2 -2 -2 -1 -1 -1 -1 -1 -1 -1 -1 -1 -2 -2 -2 -2 -3 -3 -3 -3 -3 -3 -3 -3 -2 -2 -2 -2 -2 -2 -2 -3 -3 -3 -4
-1 -1 -1 -2 -1 0 2 0 -1 -2 -1 -1 -1 -1 0 1 2 1 -0 -3 -3 -1 1 3 5 5 1 -1 -1 2 6 5 3 -0 -1 -1 0 2 2 2 1 -0 -1 -2 -2 -2 -2 -2 -2 -2 -3 -3 -2 -2 -2 -2 -2 -1 -2 -1 -1 -1 -1 -2 -2 -2 -2 -2 -3 -3 -2 -2 -2 -2 -2 -1 -1 -1 -1 -1 -1 -1 -1 -1 -2 -2
-1 -1 -1 -1 -1 -1 -1 -1 -2 -2 -1 -1 -2 -3 -4 -2 1 4 4 1 0 0 1 1 2 2 1 -0 0 2 6 5 2 -1 -3 -3 -1 2 2 1 0 -0 -1 -1 -1 -1 -1 -2 -2 -2 -2 -3 -3 -3 -2 -3 -2 -2 -2 -2 -2 -2 -2 -2 -2 -2 -2 -2 -2 -2 -2 -2 -1 -1 -1 -0 -0 -0 0 0 0 0 0 -0 -0 -1
0 1 1 1 -0 -1 -1 -2 -3 -3 -2 -1 -0 -2 -5 -6 -2 3 6 5 4 4 3 2 -1 -3 -4 -1 2 5 7 4 2 -1 -2 -3 -1 1 2 1 -1 -2 -2 -2 -2 -2 -1 -2 -2 -2 -2 -3 -4 -3 -2 -3 -3 -2 -2 -2 -2 -2 -2 -3 -3 -3 -3 -3 -2 -2 -2 -1 -1 -0 -0 0 0 0 1 1 1 1 1 1 0 0
0 0 0 -0 -1 -1 -1 -0 -0 -1 -2 -2 -1 -1 -3 -2 -0 3 5 4 3 3 5 4 1 -3 -6 -3 1 6 8 5 2 -1 -2 -3 -1 2 3 1 -1 -2 -2 -3 -4 -4 -2 -3 -4 -4 -3 -4 -4 -4 -3 -3 -3 -3 -3 -3 -3 -3 -3 -3 -3 -3 -3 -3 -2 -2 -1 -1 -1 -0 0 0 0 1 1 1 1 2 1 1 1 0
0 0 1 0 -0 -1 -1 0 0 -1 -3 -3 -1 0 1 2 3 4 4 2 0 0 3 2 0 -3 -5 -2 2 5 7 6 3 0 -3 -5 -3 1 5 3 0 -2 -1 -2 -4 -5 -3 -2 -4 -5 -4 -5 -5 -5 -4 -4 -4 -3 -3 -3 -3 -3 -3 -3 -3 -3 -3 -3 -2 -2 -1 -1 -1 -0 0 0 0 0 1 1 1 1 1 1 0 0
0 2 2 0 -1 -2 -2 -1 -0 -1 -2 -1 1 2 4 2 1 1 3 1 0 0 2 2 -0 -4 -9 -5 1 7 9 7 4 2 -1 -7 -6 -1 5 3 1 -1 -2 -2 -3 -4 -3 -3 -3 -4 -4 -5 -5 -5 -4 -4 -4 -4 -4 -4 -4 -4 -4 -4 -4 -4 -3 -3 -2 -2 -2 -1 -1 -1 -0 -0 -0 -0 -0 -0 0 0 0 0 -0 -1
1 1 0 -0 -1 -2 -3 -1 2 3 2 2 2 2 3 2 0 -0 0 0 1 1 1 3 3 0 -8 -11 -7 1 9 8 5 3 2 -5 -7 -4 3 3 2 -0 -2 -3 -3 -3 -3 -4 -4 -4 -5 -5 -5 -5 -5 -5 -4 -4 -4 -4 -4 -5 -5 -4 -4 -4 -4 -3 -3 -2 -2 -2 -1 -1 -1 -1 -1 -1 -1 -1 -0 -0 0 -0 -1 -1
-1 -1 -1 -1 -0 -0 -0 1 2 2 3 2 1 0 0 0 0 1 1 1 2 2 -1 0 2 3 2 -5 -10 -8 3 6 5 4 3 -4 -6 -5 0 2 2 1 -0 -3 -3 -2 -1 -3 -4 -4 -5 -5 -5 -5 -5 -5 -5 -4 -5 -5 -5 -5 -5 -5 -5 -4 -4 -3 -3 -3 -2 -2 -2 -1 -1 -1 -1 -1 -1 -1 -0 -0 -0 -0 -1 -1
-3 -1 1 2 2 1 1 1 1 1 1 1 0 0 -1 -2 -1 0 1 1 2 2 2 1 -1 -1 2 -1 -6 -7 -0 3 5 5 5 -2 -6 -6 -1 0 -0 -0 0 -2 -3 -2 -2 -3 -3 -3 -5 -5 -5 -4 -4 -4 -4 -4 -5 -5 -5 -5 -5 -5 -5 -5 -4 -4 -3 -3 -2 -2 -2 -1 -1 -1 -1 -0 -0 -0 0 0 0 -0 -0 -1
0 1 2 3 2 1 -1 -2 -1 1 2 1 1 1 0 -2 -1 -0 -0 0 1 1 1 2 0 -2 -1 -2 -4 -5 -2 1 3 5 6 1 -3 -5 -1 -1 -1 -1 -1 -3 -3 -2 -3 -3 -3 -3 -4 -5 -4 -4 -4 -4 -4 -4 -5 -5 -5 -6 -5 -5 -5 -5 -4 -4 -3 -3 -3 -2 -2 -1 -1 -0 0 1 1 1 1 1 1 0 -0 -1
2 0 -1 2 2 1 -2 -3 -1 1 2 2 2 1 -1 -1 -1 -1 -1 0 0 -0 -1 0 -1 -2 -1 -1 -3 -5 -2 1 3 3 4 2 -2 -4 -3 -2 -1 -0 -1 -3 -3 -2 -3 -3 -3 -3 -3 -5 -4 -4 -3 -4 -4 -4 -5 -5 -5 -5 -5 -5 -5 -4 -4 -4 -3 -3 -3 -2 -2 -1 -1 0 1 1 2 2 2 2 1 1 0 -0
1 -1 -3 -1 1 2 0 -0 -0 1 1 2 2 0 -2 -1 -1 -2 -3 -1 -0 -0 -1 -1 -2 -2 -1 -1 -3 -4 -1 0 2 4 5 3 -1 -5 -3 -3 -2 -0 1 -1 -2 -2 -1 -2 -3 -4 -3 -4 -4 -4 -3 -3 -4 -4 -5 -5 -5 -5 -5 -5 -4 -4 -4 -4 -3 -3 -3 -3 -2 -2 -1 -0 1 1 2 2 2 2 2 2 1 1
1 -1 -3 -2 -0 1 1 1 0 -0 0 2 2 1 -0 1 1 0 -1 -0 0 -0 -1 -2 -3 -2 -1 -1 -3 -4 -2 -1 1 3 6 5 1 -3 -2 -3 -3 -1 2 1 -0 -1 0 -0 -2 -5 -5 -4 -3 -3 -4 -3 -4 -4 -4 -4 -4 -4 -4 -4 -4 -4 -4 -4 -4 -3 -3 -3 -2 -2 -1 -0 1 2 2 3 3 3 3 2 2 2
-0 -1 -2 -2 -1 -0 0 0 -0 -1 -0 0 0 0 -0 1 2 2 2 2 1 1 -0 -1 -2 -3 -4 -3 -4 -5 -4 -2 -1 1 4 4 2 -0 -1 -2 -2 -1 2 3 1 -0 0 1 -1 -3 -5 -5 -4 -3 -4 -3 -3 -3 -4 -4 -4 -4 -4 -4 -4 -5 -5 -5 -4 -4 -3 -3 -2 -2 -1 -0 1 2 2 3 3 3 3 2 2 3
-1 -2 -2 -2 -2 -1 -1 -1 -0 -0 0 0 -0 -1 -1 -1 -0 0 1 1 2 2 1 1 -1 -3 -5 -4 -5 -7 -7 -4 -2 -0 1 2 2 1 -1 -1 -2 -1 1 4 3 2 2 2 0 -2 -4 -5 -4 -3 -4 -4 -3 -3 -3 -3 -3 -4 -4 -5 -5 -5 -6 -5 -5 -5 -4 -3 -3 -2 -1 -0 1 1 2 2 2 2 2 2 2 3
-1 -2 -2 -2 -2 -1 -1 -0 -0 0 0 1 0 -0 -1 -1 -1 -1 -1 -0 0 1 2 1 -1 -2 -3 -4 -5 -7 -8 -6 -4 -2 0 0 1 1 -0 -1 -3 -2 1 4 4 4 3 3 2 0 -3 -4 -4 -4 -5 -4 -4 -3 -3 -3 -4 -4 -5 -6 -6 -7 -7 -6 -6 -6 -5 -5 -4 -3 -2 -1 -0 1 1 1 1 1 1 1 2 3
-1 -1 -1 -1 -1 -1 -1 -0 -0 -0 0 0 0 0 -0 -0 -1 -1 -2 -2 -1 1 2 1 -1 -3 -3 -4 -6 -8 -8 -7 -6 -3 -1 -1 -0 0 -0 -2 -3 -3 -1 2 5 5 4 4 3 2 -1 -2 -3 -3 -4 -4 -4 -4 -3 -3 -4 -5 -6 -7 -7 -8 -7 -7 -7 -7 -6 -5 -4 -3 -2 -2 -1 -1 -0 -0 -0 -0 -0 1 2 3
1 0 0 -0 -1 -1 -1 -1 -1 -1 -0 -0 -1 -1 -0 0 0 -1 -3 -3 -1 0 1 1 -0 -1 -2 -3 -5 -7 -8 -8 -6 -4 -2 -1 -1 -0 -1 -3 -3 -3 -2 -0 3 6 6 4 3 3 2 1 -1 -2 -4 -4 -4 -4 -3 -4 -5 -6 -7 -8 -8 -8 -8 -7 -7 -7 -6 -5 -4 -4 -3 -3 -2 -2 -1 -2 -2 -1 -1 0 1 2
1 1 1 0 -0 -1 -1 -1 -1 -1 -1 -1 -1 -1 -1 0 1 0 -2 -1 -1 -0 -1 -0 -0 -0 -0 -1 -3 -6 -8 -9 -7 -4 -2 -2 -1 -1 -1 -3 -4 -3 -3 -2 2 7 9 6 4 3 4 3 1 -1 -3 -4 -3 -3 -3 -3 -4 -6 -7 -8 -8 -7 -7 -7 -7 -6 -6 -5 -5 -4 -4 -3 -3 -3 -2 -3 -3 -2 -1 -0 1 2
-0 0 -0 -1 -1 -1 -1 -1 -1 -1 -1 -1 -0 -0 -0 1 1 1 0 0 0 -0 -1 -1 -1 -1 -1 -1 -3 -5 -8 -10 -8 -5 -3 -2 -2 -1 -2 -3 -4 -4 -5 -5 -1 5 10 9 7 4 4 4 3 0 -2 -3 -3 -2 -2 -2 -3 -5 -7 -7 -7 -6 -6 -6 -6 -5 -5 -5 -5 -5 -4 -4 -4 -3 -3 -4 -3 -3 -2 -1 -0 0
-2 -1 -1 -1 -1 -1 -0 -0 -0 -0 -0 0 0 1 1 1 1 1 0 0 0 -0 -1 -1 -1 -1 -1 -1 -1 -3 -7 -9 -9 -6 -4 -3 -2 -1 -1 -3 -4 -4 -4 -5 -4 0 6 9 9 7 5 5 4 2 -1 -2 -2 -1 -1 -1 -2 -3 -5 -6 -6 -6 -5 -5 -5 -5 -5 -5 -5 -5 -4 -4 -4 -4 -4 -4 -4 -4 -4 -3 -2 -1
-2 -1 -1 -1 -1 -0 0 0 0 0 0 0 1 1 1 1 0 0 -0 -1 -1 -1 -1 -1 -1 -1 -1 -0 -0 -2 -5 -7 -8 -6 -5 -5 -4 -2 -0 -2 -3 -4 -4 -5 -4 -3 0 5 9 9 8 7 5 3 1 -0 -1 -1 -1 -0 -1 -2 -4 -4 -5 -4 -4 -3 -3 -4 -4 -5 -5 -5 -4 -4 -4 -4 -4 -5 -5 -6 -6 -5 -4 -3
-1 -1 -1 -1 -0 -0 -0 0 0 0 0 0 0 -0 -0 -1 -1 -1 -1 -1 -1 -1 -1 -1 -1 -1 -1 -1 -2 -3 -5 -6 -7 -6 -5 -5 -4 -3 -2 -2 -3 -4 -4 -4 -4 -4 -2 1 5 8 10 9 8 5 3 2 1 0 -0 0 -0 -1 -2 -3 -3 -3 -2 -2 -2 -2 -3 -4 -4 -4 -4 -4 -4 -4 -4 -5 -6 -7 -7 -7 -6 -4
0 -0 -1 -1 -1 -1 -1 -1 -1 -0 -1 -1 -1 -1 -1 -2 -2 -2 -2 -1 -1 -1 -0 -1 -1 -1 -1 -2 -3 -4 -6 -8 -8 -7 -6 -5 -4 -3 -1 -1 -2 -3 -3 -3 -3 -3 -3 -1 1 4 7 9 9 7 4 3 2 1 1 0 0 -0 -1 -2 -2 -2 -1 -0 -0 -1 -2 -2 -2 -2 -2 -3 -3 -3 -4 -5 -6 -7 -8 -7 -6 -5
-1 -1 -1 -1 -1 -1 -2 -2 -1 -1 -1 -1 -2 -2 -2 -2 -2 -2 -2 -1 -1 -1 -0 -0 -0 -0 -1 -1 -2 -3 -5 -8 -9 -9 -7 -5 -4 -3 -1 -1 -2 -2 -1 -1 -1 -1 -1 -0 0 1 3 7 8 8 6 4 3 2 1 0 -0 -0 -2 -2 -2 -1 0 1 1 0 0 0 0 0 -0 -1 -1 -2 -3 -3 -4 -5 -6 -6 -5 -4
-1 -2 -2 -1 -1 -1 -1 -1 -1 -1 -1 -2 -1 -1 -1 -1 -1 -1 -1 -1 -1 -1 -1 -1 -1 -1 -1 -1 -1 -2 -3 -5 -7 -8 -8 -6 -4 -3 -1 -1 -1 -2 -1 -1 -1 -0 1 1 1 1 2 4 6 7 7 5 4 2 1 -0 -0 -1 -2 -3 -3 -2 -0 1 1 1 1 1 2 2 1 1 0 -1 -1 -2 -3 -4 -4 -4 -4 -4
-1 -1 -1 -1 -1 -0 -1 -1 -1 -1 -1 -1 -1 -1 -1 -0 -0 -1 -1 -1 -1 -1 -1 -1 -1 -2 -2 -2 -2 -2 -2 -3 -5 -6 -7 -7 -5 -3 -1 -2 -2 -2 -1 -1 -2 -1 -0 1 1 2 2 2 3 5 6 5 4 3 1 1 1 -0 -2 -4 -4 -3 -2 -0 0 1 1 2 2 2 2 1 1 0 -1 -1 -2 -3 -3 -3 -3 -3
-1 -1 -1 -1 -1 -0 -0 -1 -1 -1 -0 -0 -0 -0 -0 -0 -0 -1 -1 -1 -1 -1 -2 -2 -2 -2 -3 -3 -4 -4 -3 -3 -4 -5 -6 -7 -6 -5 -3 -2 -3 -3 -2 -2 -2 -2 -2 -1 -0 1 1 2 3 4 4 3 2 2 2 3 3 2 -2 -4 -5 -4 -3 -2 -0 0 1 1 2 2 2 2 1 1 -0 -1 -2 -2 -2 -2 -2 -2
-1 -0 -1 -0 -0 -0 0 -0 -0 -1 -0 -0 -0 -0 -0 -0 -0 -0 -1 -1 -1 -1 -1 -1 -1 -1 -2 -3 -4 -5 -5 -4 -4 -5 -6 -7 -6 -6 -4 -3 -3 -3 -3 -3 -3 -2 -2 -2 -1 -1 -0 1 3 4 4 2 -0 -1 0 4 6 5 1 -3 -5 -5 -4 -2 -1 -0 0 1 2 2 2 2 1 1 0 -0 -1 -2 -2 -2 -2 -2
-1 -1 -1 -1 -0 0 0 0 -0 -0 -0 -0 -0 -0 -0 -1 -1 -1 -1 -1 -1 -1 -1 -0 0 0 -1 -2 -3 -4 -5 -5 -5 -5 -5 -6 -6 -6 -5 -3 -3 -3 -3 -3 -3 -3 -3 -3 -3 -2 -1 -0 1 3 5 2 -1 -3 -2 3 6 7 5 0 -3 -5 -4 -3 -2 -1 -0 1 2 2 2 1 1 1 0 0 0 -1 -1 -0 -0 -0
-1 -1 -2 -2 -1 -1 -0 -0 -0 -0 -0 -1 -1 -1 -1 -1 -1 -1 -2 -2 -2 -2 -2 -1 -0 -0 -1 -2 -3 -4 -4 -4 -4 -5 -5 -5 -6 -6 -5 -4 -3 -3 -2 -2 -2 -3 -3 -3 -3 -3 -2 -2 -1 2 4 2 -1 -3 -3 -0 3 6 7 4 -1 -4 -4 -3 -2 -2 -1 1 2 2 2 1 0 -0 -0 1 1 0 -1 -0 1 2
-2 -2 -2 -2 -2 -1 -1 -1 -1 -0 -0 -0 -1 -1 -1 -1 -0 -0 -1 -1 -2 -2 -2 -1 0 1 -0 -2 -4 -5 -4 -4 -4 -4 -5 -5 -5 -5 -5 -4 -3 -3 -2 -2 -2 -2 -2 -2 -2 -3 -3 -3 -2 -0 1 1 0 -1 -2 -2 -0 3 7 6 2 -2 -3 -3 -3 -2 -1 0 2 3 3 2 0 -1 -1 -1 -0 -0 -0 -1 0 1
-3 -3 -2 -2 -1 -1 -1 -1 -0 -0 -0 -0 -0 -1 -1 -0 0 0 1 0 -0 -1 -1 0 1 2 3 1 -2 -4 -5 -5 -4 -4 -4 -5 -5 -5 -4 -4 -4 -3 -2 -1 -1 -2 -1 -1 -1 -2 -3 -2 -1 -0 0 1 1 1 -0 -2 -2 -0 3 4 3 2 -0 -2 -3 -3 -2 -1 1 2 3 2 1 -1 -2 -2 -2 -2 -2 -1 -1 -0
-3 -3 -3 -2 -2 -1 -0 -0 0 0 0 0 -0 -1 -1 -0 0 1 1 1 0 0 0 0 1 1 2 2 0 -1 -3 -5 -5 -5 -5 -5 -5 -4 -4 -4 -4 -4 -2 -1 -1 -1 -1 0 0 -0 -1 -1 -1 -1 -1 -0 1 2 2 -0 -1 -1 -1 0 1 2 1 0 -1 -2 -3 -1 0 2 3 2 1 -1 -2 -3 -3 -4 -4 -3 -2 -1
-3 -3 -2 -2 -1 -0 0 0 1 1 1 0 0 -0 -0 0 0 1 1 1 0 0 -0 0 0 1 -0 -1 -0 0 -1 -2 -4 -6 -7 -7 -6 -5 -4 -4 -4 -4 -4 -3 -2 -1 0 0 1 1 1 0 0 -1 -2 -2 -0 1 3 1 -0 -1 -1 -1 -1 -1 -0 0 0 -1 -2 -2 -0 1 2 2 1 0 -2 -3 -4 -4 -4 -3 -3 -2
-3 -2 -2 -1 0 1 1 1 1 2 1 1 0 0 0 0 0 0 0 0 0 0 -1 -1 1 1 0 -1 -1 -0 0 -1 -2 -4 -6 -7 -7 -7 -6 -5 -4 -4 -4 -4 -3 -2 0 1 1 1 1 1 1 0 -0 -1 -1 -1 1 1 0 -0 -1 -1 -1 -2 -2 -1 -1 -1 -2 -2 -1 -0 1 2 2 1 -1 -2 -3 -3 -4 -3 -2 -2
-2 -1 -1 -0 1 1 1 2 2 2 2 1 1 0 0 0 0 -0 -1 -1 -0 -0 -1 -1 -0 0 0 -0 -0 0 1 0 -1 -2 -4 -5 -6 -6 -6 -6 -5 -5 -4 -3 -3 -2 -1 1 2 2 1 0 0 0 1 0 -1 -2 -2 -2 -1 -0 -0 -0 -1 -2 -3 -2 -2 -2 -2 -2 -2 -1 -0 2 3 3 1 -1 -3 -3 -3 -3 -2 -2
-1 -0 0 0 1 1 1 2 2 3 2 1 1 0 -0 -1 -0 -1 -1 -2 -1 -1 -1 -1 -1 -1 -1 -1 -1 -0 1 2 1 0 -1 -3 -4 -5 -5 -5 -5 -5 -5 -3 -2 -1 0 2 2 2 1 -1 -2 -1 1 2 1 -2 -3 -3 -3 -2 -1 -0 -0 -1 -2 -2 -2 -2 -3 -3 -3 -2 -1 1 3 4 3 1 -1 -3 -4 -3 -2 -1
0 0 1 1 2 2 2 2 2 3 2 1 1 0 -1 -2 -1 -1 -1 -2 -1 -1 -0 -0 -1 -1 -1 -1 -2 -2 -1 -0 0 0 -0 -1 -2 -3 -3 -4 -5 -5 -5 -4 -2 -1 0 2 3 3 1 -2 -4 -4 -1 2 1 -0 -3 -4 -4 -3 -2 -0 0 0 -1 -1 -1 -1 -2 -3 -3 -2 -1 1 3 5 6 4 2 -1 -4 -4 -3 -2
0 1 1 2 2 2 2 2 2 2 2 1 1 0 -1 -2 -2 -2 -2 -1 -1 -1 -1 -0 -0 -0 -1 -1 -1 -1 -1 -1 -1 -1 -2 -2 -2 -2 -2 -3 -4 -4 -4 -3 -2 -1 0 2 4 4 2 -2 -4 -5 -4 -1 0 0 -1 -2 -3 -3 -3 -1 0 1 1 1 0 -0 -1 -2 -2 -2 -1 -0 2 4 7 7 4 1 -3 -4 -3 -2
-0 0 1 2 2 2 2 2 2 2 1 1 1 1 -0 -1 -2 -3 -2 -2 -1 -1 -2 -1 -1 -0 -0 -1 -1 -0 -0 0 -0 -1 -2 -2 -2 -2 -2 -3 -3 -3 -3 -3 -2 0 2 3 5 6 4 -1 -5 -6 -4 -3 -3 -1 -1 -1 -1 -2 -3 -2 -0 1 2 1 1 0 -0 -1 -2 -2 -1 -1 1 3 6 8 6 3 -1 -3 -3 -3
Height
5673 5673 5673 5673 5673 5672 5671 5671 5671 5671 5669 5669 5669 5668 5667 5666 5665 5663 5662 5662 5660 5659 5658 5657 5656 5655 5654 5652 5652 5651 5651 5650 5649 5649 5648 5647 5647 5646 5645 5643 5642 5641 5640 5639 5638 5637 5636 5635 5634 5633 5632 5631 5630 5628 5627 5627 5625 5624 5623 5622 5621 5620 5619 5618 5617 5616 5614 5613 5612 5611 5610 5609 5608 5607 5606 5605 5604 5603 5602 5601 5600 5599 5598 5597 5596 5595
5669 5669 5670 5670 5670 5669 5667 5667 5667 5667 5666 5665 5664 5663 5662 5661 5660 5658 5658 5657 5656 5655 5654 5652 5651 5650 5649 5648 5647 5647 5646 5645 5644 5644 5643 5642 5641 5640 5639 5638 5637 5636 5635 5634 5632 5632 5631 5629 5628 5627 5626 5625 5624 5622 5622 5620 5619 5618 5617 5616 5615 5613 5612 5611 5610 5609 5607 5606 5605 5604 5603 5602 5600 5599 5598 5597 5596 5595 5594 5593 5592 5591 5590 5589 5588 5587
5666 5666 5666 5666 5666 5665 5664 5663 5662 5662 5662 5660 5659 5658 5658 5657 5655 5654 5653 5652 5651 5650 5649 5648 5647 5645 5644 5643 5642 5642 5641 5640 5639 5638 5637 5637 5636 5634 5633 5632 5631 5630 5629 5628 5627 5626 5625 5624 5622 5621 5620 5619 5617 5616 5615 5614 5613 5612 5610 5609 5608 5607 5606 5604 5603 5602 5600 5599 5598 5597 5595 5594 5593 5592 5591 5589 5588 5587 5586 5585 5584 5582 5581 5580 5579 5578
5662 5662 5662 5662 5662 5661 5660 5659 5658 5657 5657 5656 5655 5654 5653 5652 5650 5649 5648 5647 5646 5645 5644 5642 5642 5640 5639 5638 5637 5637 5636 5635 5634 5633 5632 5631 5630 5629 5627 5627 5625 5624 5623 5622 5621 5620 5619 5618 5617 5615 5614 5612 5611 5610 5609 5607 5606 5605 5603 5602 5601 5600 5598 5597 5596 5594 5593 5592 5590 5589 5587 5586 5585 5584 5582 5581 5580 5579 5577 5576 5575 5573 5572 5571 5570 5569
5658 5658 5657 5657 5657 5656 5655 5654 5653 5652 5652 5651 5650 5649 5648 5647 5645 5644 5643 5642 5641 5640 5638 5637 5636 5635 5634 5633 5632 5632 5631 5630 5629 5628 5627 5625 5624 5623 5622 5621 5619 5618 5617 5616 5615 5614 5612 5611 5610 5609 5607 5606 5604 5603 5602 5600 5599 5598 5596 5595 5593 5592 5591 5589 5588 5587 5585 5584 5582 5581 5580 5578 5577 5576 5574 5573 5572 5570 5569 5567 5566 5564 5563 5562 5561 5559
5654 5654 5653 5652 5652 5651 5650 5649 5649 5647 5647 5646 5645 5644 5643 5642 5641 5639 5638 5637 5636 5635 5634 5632 5632 5631 5630 5628 5628 5627 5626 5625 5624 5622 5621 5620 5618 5617 5616 5615 5613 5612 5611 5610 5608 5607 5606 5605 5603 5602 5601 5599 5597 5596 5595 5593 5592 5590 5589 5587 5586 5584 5583 5582 5580 5579 5577 5576 5574 5573 5572 5570 5569 5567 5566 5564 5563 5561 5560 5558 5557 5555 5554 5552 5551 5550
5649 5649 5649 5648 5647 5647 5646 5645 5644 5643 5643 5642 5641 5640 5639 5637 5637 5635 5634 5633 5632 5631 5629 5628 5627 5626 5625 5624 5623 5622 5621 5620 5618 5617 5615 5614 5612 5611 5610 5608 5607 5606 5604 5603 5602 5601 5599 5598 5597 5595 5594 5592 5591 5589 5588 5586 5585 5583 5582 5580 5578 5577 5575 5574 5572 5571 5569 5568 5566 5565 5563 5562 5560 5559 5557 5556 5554 5552 5551 5549 5548 5546 5545 5543 5542 5541
5645 5645 5645 5644 5643 5642 5641 5640 5640 5639 5639 5637 5637 5635 5634 5633 5632 5631 5630 5629 5627 5627 5625 5624 5622 5622 5620 5619 5618 5617 5616 5615 5613 5611 5610 5608 5607 5605 5604 5602 5601 5600 5598 5597 5596 5594 5593 5592 5590 5589 5587 5586 5584 5583 5581 5579 5578 5576 5575 5573 5571 5570 5568 5567 5565 5563 5562 5560 5558 5557 5555 5554 5552 5551 5549 5547 5546 5544 5542 5541 5539 5537 5536 5535 5533 5532
5641 5641 5641 5640 5640 5638 5637 5636 5636 5635 5635 5633 5632 5631 5630 5629 5628 5627 5626 5624 5623 5622 5621 5620 5618 5617 5616 5615 5613 5612 5611 5610 5608 5606 5604 5602 5601 5600 5598 5597 5595 5593 5592 5591 5589 5588 5587 5585 5584 5582 5581 5579 5577 5576 5574 5573 5571 5569 5568 5566 5564 5562 5561 5559 5557 5556 5554 5552 5551 5549 5548 5546 5544 5543 5541 5539 5537 5536 5534 5532 5531 5530 5528 5527 5525 5524
5637 5637 5636 5636 5635 5635 5633 5632 5631 5631 5631 5629 5628 5627 5626 5625 5624 5622 5622 5620 5619 5618 5617 5616 5614 5612 5611 5610 5609 5608 5606 5605 5602 5601 5599 5597 5596 5595 5593 5591 5589 5587 5586 5585 5583 5582 5580 5579 5577 5576 5574 5572 5571 5569 5568 5566 5564 5562 5561 5559 5557 5556 5554 5552 5550 5549 5547 5545 5544 5542 5540 5539 5537 5535 5533 5532 5530 5528 5527 5525 5524 5522 5521 5519 5518 5517
5633 5633 5632 5631 5631 5630 5629 5628 5627 5626 5626 5625 5624 5622 5622 5621 5620 5618 5617 5615 5615 5614 5612 5611 5610 5608 5606 5605 5604 5603 5602 5599 5597 5595 5593 5592 5591 5590 5587 5586 5584 5582 5580 5578 5577 5575 5574 5572 5570 5569 5567 5566 5564 5562 5561 5559 5557 5556 5554 5552 5550 5548 5547 5545 5543 5542 5540 5538 5537 5535 5533 5532 5530 5528 5526 5525 5523 5522 5520 5519 5517 5516 5514 5513 5512 5510
5629 5629 5628 5627 5627 5626 5625 5624 5623 5622 5622 5621 5619 5618 5617 5617 5616 5614 5612 5611 5610 5609 5607 5606 5604 5603 5602 5600 5599 5598 5597 5594 5592 5589 5588 5587 5586 5584 5582 5580 5578 5576 5574 5572 5571 5569 5567 5566 5564 5562 5560 5558 5557 5555 5553 5552 5550 5548 5547 5545 5543 5541 5539 5538 5536 5534 5533 5531 5529 5528 5526 5524 5523 5521 5520 5518 5517 5515 5514 5512 5511 5510 5508 5507 5506 5504
5626 5625 5624 5623 5622 5622 5621 5620 5619 5618 5618 5617 5615 5614 5612 5612 5611 5610 5608 5607 5606 5604 5603 5601 5599 5597 5597 5596 5595 5594 5592 5589 5586 5584 5582 5581 5580 5579 5577 5574 5572 5569 5568 5566 5564 5562 5561 5559 5557 5555 5553 5551 5549 5548 5546 5544 5542 5541 5539 5537 5536 5534 5532 5530 5529 5527 5526 5524 5522 5521 5519 5518 5516 5515 5513 5512 5510 5509 5508 5507 5505 5504 5502 5501 5500 5499
5622 5622 5621 5620 5619 5618 5617 5617 5616 5614 5613 5612 5612 5610 5608 5607 5607 5606 5604 5603 5601 5600 5598 5596 5594 5592 5591 5591 5591 5589 5587 5584 5581 5578 5577 5576 5575 5573 5571 5568 5565 5563 5562 5560 5557 5555 5554 5552 5550 5547 5546 5544 5542 5540 5538 5537 5535 5533 5532 5530 5528 5527 5525 5523 5522 5520 5519 5517 5516 5514 5512 5511 5510 5508 5507 5506 5504 5503 5502 5501 5499 5498 5497 5496 5494 5493
5619 5618 5617 5616 5615 5615 5614 5613 5612 5610 5609 5608 5607 5606 5605 5603 5602 5601 5600 5598 5597 5595 5594 5592 5590 5588 5587 5586 5586 5585 5582 5579 5576 5573 5571 5569 5569 5568 5566 5563 5559 5557 5555 5553 5551 5548 5547 5545 5543 5540 5538 5536 5535 5533 5531 5529 5528 5526 5524 5523 5521 5519 5518 5516 5515 5513 5512 5510 5509 5507 5506 5505 5503 5502 5501 5499 5498 5497 5496 5495 5494 5492 5491 5490 5488 5487
5616 5615 5614 5613 5612 5611 5610 5609 5608 5607 5605 5604 5603 5602 5601 5599 5598 5597 5595 5593 5592 5590 5589 5587 5585 5583 5581 5581 5581 5580 5577 5574 5571 5568 5566 5563 5562 5562 5561 5558 5554 5551 5548 5547 5545 5542 5540 5538 5536 5533 5531 5529 5527 5526 5524 5522 5521 5519 5517 5516 5514 5512 5511 5509 5508 5507 5505 5504 5503 5501 5500 5499 5497 5496 5495 5494 5492 5491 5490 5489 5488 5487 5485 5484 5482 5481
5612 5611 5610 5609 5608 5607 5606 5606 5604 5603 5602 5600 5599 5598 5597 5595 5593 5592 5591 5589 5587 5586 5584 5582 5580 5578 5576 5575 5575 5575 5573 5570 5566 5563 5561 5558 5556 5555 5555 5553 5549 5545 5542 5541 5538 5536 5534 5531 5529 5527 5525 5523 5521 5519 5517 5516 5514 5512 5511 5509 5507 5506 5505 5503 5502 5501 5499 5498 5497 5496 5494 5493 5492 5491 5489 5488 5487 5486 5485 5483 5482 5481 5479 5478 5476 5475
5609 5608 5607 5606 5605 5603 5602 5602 5600 5599 5598 5596 5595 5593 5592 5590 5589 5587 5586 5584 5583 5581 5579 5577 5576 5574 5572 5569 5568 5568 5568 5566 5562 5558 5556 5552 5550 5549 5549 5547 5544 5540 5537 5534 5532 5530 5527 5525 5522 5520 5518 5516 5514 5512 5511 5509 5507 5506 5504 5503 5501 5500 5498 5497 5496 5495 5493 5492 5491 5490 5489 5487 5486 5485 5484 5483 5482 5481 5479 5478 5477 5475 5473 5472 5470 5469
5606 5605 5603 5602 5601 5600 5599 5597 5596 5595 5594 5592 5591 5589 5587 5586 5585 5583 5582 5580 5578 5576 5574 5572 5570 5568 5567 5565 5563 5562 5562 5561 5558 5554 5551 5547 5545 5543 5542 5541 5538 5535 5532 5529 5526 5524 5522 5519 5516 5514 5512 5510 5508 5507 5505 5503 5502 5500 5498 5497 5496 5494 5493 5492 5490 5489 5488 5487 5486 5484 5483 5482 5481 5480 5479 5478 5477 5475 5474 5472 5471 5469 5468 5466 5465 5464
5602 5601 5600 5599 5597 5596 5595 5593 5592 5591 5590 5588 5587 5585 5583 5582 5581 5579 5577 5576 5574 5572 5570 5567 5565 5563 5562 5560 5558 5557 5556 5555 5553 5550 5547 5543 5540 5537 5536 5535 5533 5529 5526 5523 5521 5518 5516 5513 5510 5508 5506 5505 5503 5501 5499 5498 5496 5494 5493 5492 5490 5489 5487 5486 5485 5484 5483 5482 5480 5479 5478 5477 5476 5475 5474 5473 5472 5471 5469 5467 5466 5464 5463 5461 5460 5459
5598 5597 5597 5595 5594 5592 5591 5590 5589 5587 5586 5584 5582 5581 5579 5578 5576 5575 5573 5571 5569 5567 5565 5562 5560 5558 5557 5555 5553 5551 5550 5550 5548 5545 5542 5539 5535 5532 5531 5530 5528 5525 5521 5518 5515 5513 5511 5508 5505 5502 5501 5499 5497 5496 5494 5492 5491 5489 5488 5486 5485 5483 5482 5481 5480 5479 5477 5477 5476 5474 5473 5472 5472 5471 5469 5468 5467 5465 5464 5462 5461 5459 5458 5457 5456 5455
5595 5593 5592 5591 5590 5589 5587 5586 5585 5583 5582 5580 5578 5577 5575 5574 5572 5570 5568 5567 5564 5562 5559 5557 5555 5553 5552 5550 5547 5546 5545 5544 5543 5541 5538 5534 5530 5526 5525 5524 5523 5520 5517 5513 5510 5508 5505 5502 5500 5497 5496 5494 5492 5491 5489 5487 5486 5484 5483 5481 5480 5478 5477 5476 5475 5474 5473 5472 5471 5470 5469 5468 5467 5466 5465 5463 5462 5460 5459 5457 5456 5455 5454 5453 5452 5451
5591 5590 5588 5587 5586 5585 5584 5582 5581 5579 5578 5576 5574 5572 5571 5569 5567 5565 5563 5561 5559 5557 5554 5552 5550 5548 5546 5544 5542 5540 5539 5538 5537 5535 5533 5530 5526 5522 5519 5519 5518 5515 5512 5509 5506 5503 5500 5497 5494 5492 5491 5489 5487 5486 5484 5482 5481 5479 5478 5477 5475 5474 5472 5471 5470 5469 5468 5467 5466 5465 5464 5463 5462 5461 5460 5458 5457 5456 5454 5453 5452 5451 5450 5449 5448 5448
5587 5586 5585 5584 5582 5581 5580 5578 5577 5575 5573 5572 5570 5567 5566 5564 5562 5560 5558 5556 5554 5552 5549 5547 5544 5542 5540 5539 5537 5535 5533 5533 5532 5530 5528 5525 5521 5517 5515 5514 5513 5511 5507 5505 5502 5500 5497 5493 5490 5487 5486 5484 5482 5481 5479 5478 5476 5475 5473 5472 5470 5469 5468 5467 5466 5465 5464 5463 5462 5461 5460 5458 5457 5456 5455 5453 5452 5451 5450 5449 5448 5447 5446 5446 5445 5444
5584 5582 5581 5580 5579 5577 5576 5574 5572 5571 5569 5567 5565 5563 5561 5559 5557 5555 5553 5551 5549 5547 5544 5542 5539 5537 5535 5533 5532 5529 5527 5527 5526 5525 5522 5520 5517 5513 5510 5509 5508 5507 5504 5501 5498 5496 5493 5489 5486 5483 5481 5479 5478 5476 5475 5473 5472 5470 5469 5467 5466 5465 5463 5462 5461 5460 5459 5458 5457 5456 5455 5454 5452 5451 5450 5448 5447 5447 5446 5445 5444 5443 5442 5442 5441 5440
5581 5579 5578 5577 5575 5573 5572 5570 5568 5566 5564 5562 5560 5558 5556 5554 5552 5550 5549 5547 5545 5542 5540 5537 5534 5532 5530 5528 5526 5523 5522 5521 5520 5519 5517 5515 5512 5508 5505 5504 5504 5503 5500 5497 5495 5492 5490 5486 5482 5479 5477 5475 5473 5472 5470 5469 5467 5466 5464 5463 5462 5460 5459 5458 5457 5456 5455 5454 5453 5452 5450 5449 5447 5446 5445 5444 5443 5442 5441 5441 5440 5439 5438 5438 5437 5437
5577 5576 5574 5572 5571 5569 5567 5566 5564 5562 5560 5558 5556 5554 5552 5550 5548 5546 5544 5542 5541 5538 5535 5532 5530 5527 5524 5522 5520 5518 5516 5515 5514 5513 5512 5511 5508 5505 5502 5500 5499 5498 5496 5494 5492 5489 5487 5483 5479 5476 5473 5471 5469 5467 5466 5464 5463 5462 5460 5459 5457 5456 5455 5453 5452 5452 5451 5449 5448 5447 5446 5444 5443 5442 5441 5440 5439 5438 5437 5437 5436 5435 5434 5434 5433 5432
5574 5572 5570 5568 5567 5565 5563 5561 5559 5558 5556 5554 5552 5550 5547 5546 5543 5541 5539 5537 5536 5533 5530 5528 5525 5522 5520 5517 5514 5512 5511 5511 5510 5508 5507 5506 5503 5501 5498 5496 5494 5493 5492 5490 5488 5486 5483 5480 5476 5473 5470 5468 5466 5463 5462 5461 5459 5458 5456 5455 5453 5452 5451 5449 5448 5447 5446 5445 5444 5442 5441 5440 5439 5437 5437 5436 5435 5434 5433 5432 5432 5431 5430 5430 5429 5428
5570 5568 5566 5565 5563 5561 5559 5557 5556 5554 5552 5550 5548 5545 5543 5541 5539 5537 5534 5532 5530 5528 5525 5523 5521 5518 5516 5513 5510 5507 5506 5506 5505 5504 5503 5501 5499 5496 5494 5492 5490 5488 5487 5486 5484 5482 5480 5477 5473 5470 5467 5465 5462 5460 5458 5457 5456 5454 5453 5451 5450 5448 5447 5446 5445 5443 5442 5441 5440 5438 5437 5436 5435 5434 5433 5432 5431 5430 5429 5428 5428 5427 5427 5426 5425 5424
5566 5565 5563 5561 5559 5557 5555 5553 5552 5550 5547 5546 5543 5541 5539 5537 5534 5532 5529 5527 5525 5523 5521 5518 5516 5514 5512 5509 5506 5503 5501 5500 5500 5500 5499 5497 5494 5492 5490 5488 5485 5483 5482 5482 5480 5478 5477 5474 5471 5467 5465 5462 5459 5457 5455 5453 5452 5451 5449 5448 5446 5445 5443 5442 5441 5440 5438 5437 5436 5434 5433 5432 5431 5430 5429 5428 5427 5427 5426 5425 5424 5423 5422 5422 5421 5421
5563 5561 5559 5557 5556 5553 5552 5549 5547 5545 5543 5541 5539 5537 5534 5532 5530 5527 5525 5523 5521 5519 5516 5514 5512 5510 5508 5506 5503 5500 5497 5496 5495 5495 5495 5493 5490 5487 5486 5484 5481 5478 5477 5477 5475 5474 5472 5470 5468 5465 5462 5459 5457 5454 5452 5451 5449 5448 5446 5445 5443 5442 5440 5439 5437 5436 5435 5433 5432 5431 5429 5428 5427 5427 5426 5425 5424 5423 5422 5421 5420 5419 5418 5418 5417 5417
5559 5557 5555 5553 5551 5549 5547 5545 5543 5541 5538 5536 5534 5532 5530 5527 5525 5523 5521 5518 5516 5514 5512 5510 5508 5506 5504 5502 5500 5497 5494 5492 5491 5490 5490 5488 5486 5483 5482 5479 5477 5474 5472 5471 5470 5469 5467 5466 5464 5462 5459 5457 5454 5452 5449 5448 5446 5445 5443 5442 5440 5438 5437 5436 5434 5433 5432 5430 5429 5427 5426 5425 5424 5423 5422 5422 5420 5419 5418 5417 5417 5415 5415 5414 5413 5412
5555 5553 5551 5549 5547 5545 5542 5540 5538 5536 5534 5532 5530 5527 5525 5523 5521 5518 5516 5514 5512 5511 5509 5507 5505 5502 5500 5498 5496 5494 5491 5489 5487 5486 5485 5483 5481 5479 5477 5475 5472 5470 5468 5466 5465 5463 5462 5461 5459 5458 5457 5454 5452 5449 5447 5445 5443 5442 5440 5439 5437 5436 5434 5432 5431 5430 5428 5427 5426 5424 5423 5422 5421 5420 5419 5418 5417 5416 5415 5414 5413 5412 5411 5410 5409 5408
5551 5549 5547 5545 5542 5540 5538 5536 5534 5532 5530 5527 5525 5523 5521 5518 5517 5514 5512 5511 5509 5507 5505 5503 5502 5499 5497 5494 5492 5489 5487 5485 5483 5482 5480 5479 5477 5475 5472 5470 5468 5466 5464 5462 5460 5459 5457 5456 5455 5454 5452 5451 5449 5447 5444 5442 5440 5439 5437 5435 5434 5432 5431 5429 5428 5427 5425 5424 5423 5422 5420 5419 5418 5417 5416 5415 5414 5413 5412 5411 5409 5408 5407 5405 5404 5404
5547 5545 5543 5541 5539 5537 5534 5532 5530 5527 5525 5523 5521 5519 5517 5514 5512 5511 5509 5507 5505 5503 5501 5499 5498 5496 5493 5491 5488 5486 5483 5480 5478 5477 5476 5474 5472 5470 5468 5466 5464 5462 5460 5458 5456 5455 5453 5452 5451 5450 5448 5447 5446 5444 5442 5439 5437 5436 5434 5432 5431 5429 5427 5426 5424 5423 5422 5421 5420 5419 5418 5417 5416 5414 5413 5412 5411 5410 5409 5407 5406 5404 5403 5402 5400 5399
5543 5541 5539 5537 5535 5532 5530 5528 5526 5523 5521 5519 5517 5515 5512 5511 5509 5507 5505 5503 5502 5500 5497 5496 5494 5492 5490 5487 5485 5482 5479 5477 5474 5473 5471 5469 5468 5466 5464 5462 5460 5458 5456 5454 5452 5451 5449 5448 5447 5446 5445 5443 5442 5441 5439 5437 5435 5432 5431 5429 5427 5426 5424 5422 5421 5420 5419 5418 5417 5416 5415 5414 5413 5412 5411 5410 5408 5407 5406 5404 5402 5401 5399 5398 5397 5396
5540 5538 5535 5533 5531 5528 5526 5524 5521 5519 5517 5515 5512 5511 5509 5507 5505 5503 5502 5500 5498 5496 5494 5492 5490 5487 5486 5483 5481 5479 5476 5473 5471 5468 5467 5465 5463 5461 5459 5457 5455 5453 5452 5449 5448 5447 5445 5444 5443 5442 5441 5440 5438 5437 5436 5434 5432 5430 5428 5426 5424 5422 5420 5419 5417 5416 5416 5415 5414 5413 5412 5411 5410 5409 5408 5407 5406 5404 5402 5401 5399 5397 5396 5395 5393 5392
5536 5534 5532 5529 5527 5524 5522 5519 5517 5515 5513 5511 5509 5507 5505 5503 5502 5500 5498 5496 5494 5492 5491 5488 5486 5484 5482 5479 5477 5475 5472 5470 5467 5465 5462 5460 5458 5457 5455 5453 5451 5449 5447 5445 5444 5442 5441 5440 5439 5438 5437 5436 5435 5434 5432 5431 5429 5427 5425 5423 5421 5419 5417 5415 5414 5413 5412 5412 5411 5410 5409 5408 5407 5407 5406 5404 5403 5401 5400 5398 5396 5395 5393 5392 5391 5389
5532 5530 5527 5525 5522 5520 5518 5515 5513 5511 5509 5507 5505 5503 5501 5500 5498 5496 5494 5492 5491 5489 5487 5485 5482 5480 5478 5475 5473 5471 5469 5466 5464 5461 5459 5456 5454 5452 5451 5448 5447 5445 5443 5441 5440 5438 5437 5436 5435 5434 5433 5432 5432 5430 5429 5427 5425 5423 5422 5421 5419 5417 5414 5412 5411 5410 5409 5408 5408 5407 5406 5405 5405 5404 5402 5401 5400 5398 5397 5395 5393 5392 5390 5389 5387 5386
5528 5526 5523 5521 5518 5516 5513 5511 5509 5507 5505 5503 5501 5499 5497 5496 5494 5492 5491 5489 5487 5486 5483 5482 5479 5477 5474 5472 5469 5467 5465 5462 5460 5457 5455 5452 5450 5448 5446 5444 5442 5441 5439 5437 5436 5435 5433 5432 5431 5430 5430 5428 5427 5427 5425 5423 5421 5420 5418 5417 5416 5414 5412 5410 5408 5407 5406 5405 5405 5404 5403 5402 5402 5401 5400 5398 5397 5395 5394 5392 5391 5389 5388 5386 5385 5384
5524 5522 5519 5517 5514 5512 5509 5507 5505 5503 5501 5499 5497 5496 5494 5492 5491 5489 5487 5486 5484 5482 5480 5478 5476 5474 5471 5468 5466 5463 5461 5459 5456 5454 5451 5449 5446 5444 5442 5440 5438 5437 5435 5434 5432 5431 5430 5428 5427 5427 5426 5425 5424 5423 5422 5420 5418 5416 5414 5413 5412 5411 5409 5407 5405 5404 5403 5402 5402 5401 5400 5399 5399 5398 5397 5396 5394 5392 5391 5389 5388 5387 5385 5384 5382 5381
5520 5517 5515 5512 5510 5507 5505 5503 5501 5499 5497 5495 5494 5492 5491 5489 5488 5486 5484 5482 5481 5479 5477 5475 5473 5471 5468 5465 5462 5460 5457 5455 5452 5450 5447 5445 5443 5440 5438 5436 5435 5433 5432 5430 5429 5428 5426 5425 5424 5423 5422 5421 5420 5419 5417 5416 5415 5412 5411 5409 5408 5407 5407 5405 5403 5401 5400 5399 5398 5398 5397 5396 5396 5395 5394 5393 5391 5389 5388 5386 5385 5383 5382 5381 5380 5379
5516 5513 5511 5508 5506 5503 5501 5499 5497 5495 5493 5492 5490 5489 5487 5486 5485 5483 5481 5479 5477 5476 5474 5472 5470 5468 5465 5462 5459 5457 5454 5452 5449 5447 5444 5442 5439 5437 5435 5433 5431 5429 5428 5427 5426 5424 5423 5422 5421 5419 5418 5417 5416 5415 5413 5412 5411 5410 5408 5406 5405 5404 5403 5402 5401 5399 5397 5396 5395 5394 5394 5393 5393 5392 5391 5390 5388 5387 5385 5383 5382 5380 5379 5378 5377 5376
5512 5509 5506 5504 5502 5499 5497 5495 5493 5492 5490 5489 5487 5486 5484 5483 5481 5480 5478 5476 5474 5472 5471 5469 5467 5465 5462 5460 5457 5454 5451 5448 5445 5442 5440 5438 5435 5433 5431 5429 5427 5426 5424 5423 5422 5421 5420 5419 5417 5416 5415 5414 5412 5411 5410 5409 5407 5406 5405 5403 5402 5400 5399 5398 5397 5396 5395 5394 5393 5392 5391 5390 5389 5389 5388 5387 5385 5384 5382 5380 5378 5377 5376 5375 5374 5373
5507 5505 5502 5500 5498 5496 5494 5492 5490 5488 5487 5486 5484 5482 5481 5479 5478 5477 5475 5473 5471 5469 5467 5465 5463 5461 5458 5456 5454 5451 5448 5445 5442 5439 5436 5434 5432 5429 5427 5425 5423 5422 5421 5419 5418 5417 5417 5415 5414 5413 5412 5410 5409 5408 5406 5405 5404 5403 5402 5400 5398 5397 5396 5395 5394 5393 5392 5391 5390 5389 5387 5387 5386 5386 5386 5384 5383 5381 5379 5377 5376 5374 5373 5372 5371 5370
5503 5501 5498 5496 5494 5492 5490 5489 5487 5485 5484 5482 5481 5479 5477 5476 5474 5473 5471 5470 5468 5466 5464 5462 5460 5457 5455 5452 5450 5448 5445 5442 5439 5436 5433 5430 5428 5426 5424 5422 5420 5418 5417 5416 5415 5414 5413 5412 5411 5409 5408 5407 5406 5405 5403 5402 5400 5399 5398 5397 5395 5394 5393 5392 5391 5390 5389 5388 5387 5386 5385 5384 5383 5383 5383 5382 5381 5379 5377 5374 5372 5371 5370 5369 5368 5367
5499 5497 5495 5492 5491 5489 5487 5485 5484 5482 5481 5479 5477 5476 5474 5472 5471 5469 5468 5466 5464 5462 5460 5458 5456 5454 5451 5449 5447 5444 5442 5439 5436 5433 5430 5427 5424 5422 5420 5418 5417 5415 5414 5412 5411 5410 5409 5408 5407 5406 5405 5404 5402 5401 5400 5399 5397 5395 5394 5393 5392 5391 5390 5389 5388 5387 5386 5385 5384 5383 5382 5381 5381 5380 5380 5379 5378 5377 5374 5372 5370 5368 5367 5365 5365 5364
5496 5493 5491 5489 5487 5485 5483 5482 5480 5479 5477 5476 5474 5472 5471 5469 5467 5466 5464 5462 5461 5459 5457 5455 5452 5450 5448 5445 5443 5441 5438 5435 5433 5430 5427 5424 5422 5419 5417 5415 5413 5412 5411 5409 5408 5407 5406 5405 5404 5402 5401 5400 5398 5397 5397 5396 5394 5392 5391 5389 5388 5387 5387 5386 5385 5384 5383 5382 5381 5380 5379 5378 5378 5377 5377 5377 5376 5374 5372 5370 5367 5365 5363 5362 5362 5361
5492 5489 5487 5485 5483 5482 5480 5478 5477 5476 5474 5472 5471 5469 5467 5465 5464 5462 5461 5459 5457 5455 5453 5451 5449 5447 5444 5442 5439 5437 5434 5432 5429 5427 5424 5421 5418 5416 5414 5412 5410 5409 5407 5406 5405 5404 5403 5402 5401 5399 5397 5396 5394 5393 5393 5392 5391 5389 5387 5386 5385 5384 5384 5383 5382 5381 5380 5379 5378 5377 5376 5375 5375 5374 5374 5374 5373 5372 5371 5368 5365 5363 5360 5359 5358 5358
5488 5486 5483 5482 5480 5478 5477 5475 5473 5472 5471 5469 5467 5466 5463 5462 5460 5458 5457 5455 5453 5452 5450 5447 5445 5443 5441 5438 5436 5433 5431 5428 5426 5423 5420 5418 5415 5413 5411 5409 5407 5406 5405 5404 5402 5402 5401 5400 5399 5397 5395 5392 5391 5390 5389 5389 5388 5386 5385 5383 5382 5381 5380 5380 5379 5378 5377 5377 5376 5375 5374 5373 5372 5371 5371 5371 5370 5369 5368 5366 5364 5361 5358 5356 5355 5355
5484 5482 5480 5478 5476 5474 5473 5471 5470 5468 5467 5466 5464 5462 5460 5458 5457 5455 5453 5452 5450 5448 5446 5444 5442 5439 5437 5435 5432 5430 5427 5425 5422 5419 5417 5414 5412 5410 5408 5406 5404 5403 5402 5401 5400 5399 5398 5397 5396 5395 5394 5391 5388 5386 5385 5384 5383 5382 5381 5381 5380 5378 5377 5377 5376 5376 5375 5374 5373 5372 5371 5370 5369 5369 5368 5368 5367 5367 5366 5364 5362 5359 5356 5354 5352 5352